This is the latest recevied weather packets stored in our database for station/object G6LTT. If no packets are shown the sender has not sent any weather packets the latest 10 day(s).
| Time | Temp. | Humidity | Pressure | Rain* | Wind** | Luminosity | Snow |
|---|---|---|---|---|---|---|---|
| 1778144403 | 12.78° C | 64% | 1044.8 hPa | 0 mm | - | - | - |
| 1778142423 | 10.56° C | 73% | 1044.9 hPa | 0 mm | - | - | - |
| 1778141883 | 11.11° C | 72% | 1044.8 hPa | 0 mm | - | - | - |
| 1778140803 | 11.67° C | 70% | 1044.8 hPa | 0 mm | - | - | - |
| 1778139363 | 11.11° C | 71% | 1044.9 hPa | 0 mm | - | - | - |
| 1778134276 | 7.78° C | 87% | 1044.5 hPa | 0 mm | - | - | - |
| 1778124423 | 7.22° C | 91% | 1043.7 hPa | 0 mm | - | - | - |
| 1778123343 | 6.67° C | 91% | 1043.7 hPa | 0 mm | - | - | - |
| 1778119874 | 7.22° C | 90% | 1043.4 hPa | 0 mm | - | - | - |
| 1778116143 | 7.78° C | 87% | 1043.6 hPa | 0 mm | - | - | - |
| 1778115243 | 7.78° C | 87% | 1043.4 hPa | 0 mm | - | - | - |
| 1778111103 | 7.78° C | 86% | 1043.6 hPa | 0 mm | - | - | - |
| 1778109483 | 8.33° C | 85% | 1043.6 hPa | 0 mm | - | - | - |
| 1778108043 | 8.33° C | 84% | 1043.4 hPa | 0 mm | - | - | - |
| 1778103903 | 8.89° C | 80% | 1043.4 hPa | 0 mm | - | - | - |
| 1778100843 | 9.44° C | 77% | 1043 hPa | 0 mm | - | - | - |
| 1778100303 | 9.44° C | 76% | 1043 hPa | 0 mm | - | - | - |
| 1778099763 | 9.44° C | 75% | 1043 hPa | 0 mm | - | - | - |
| 1778098143 | 10° C | 71% | 1043 hPa | 0 mm | - | - | - |
| 1778095758 | 10.56° C | 68% | 1042.5 hPa | 0 mm | - | - | - |
| 1778092697 | 11.11° C | 62% | 1042.3 hPa | 0 mm | - | - | - |
| 1778088423 | 12.22° C | 59% | 1041.5 hPa | 0 mm | - | - | - |
| 1778079603 | 12.78° C | 56% | 1041.6 hPa | 0 mm | - | - | - |
| 1778079243 | 12.78° C | 56% | 1041.8 hPa | 0 mm | - | - | - |
| 1778078163 | 12.78° C | 59% | 1041.7 hPa | 0 mm | - | - | - |
* Rain latest hour (hover to see other rain measurements)
** Current wind speed in m/s (hover to see current wind gust speed)